KK5DC Weather Reports


time (UTC)temp
F
wind
direction
speed
knots
gust
knots
rain 1hr
in
rain 24hr
in
rain mn
in
humidity
%
barometer
mb
20260506034008 75 136 1.7 5.2 0.00 0.00 0.00 86 1008.5
20260506034004 75 238 0.0 1.7 0.00 0.00 0.00 86 1009.2
20260506033512 75 173 1.7 7.8 0.00 0.00 0.00 85 1008.3
20260506033504 75 150 0.0 2.6 0.00 0.00 0.00 85 1009.0
20260506033020 75 140 2.6 7.8 0.00 0.00 0.00 85 1008.1
20260506033014 75 201 0.9 3.5 0.00 0.00 0.00 85 1008.8
20260506032513 75 213 0.0 3.5 0.00 0.00 0.00 85 1008.7
20260506032507 75 155 2.6 7.8 0.00 0.00 0.00 85 1008.1
20260506032009 75 160 3.5 7.8 0.00 0.00 0.00 85 1008.2
20260506031523 75 230 0.9 3.5 0.00 0.00 0.00 85 1008.6
20260506031520 75 178 3.5 7.8 0.00 0.00 0.00 85 1008.2
20260506031008 76 171 3.5 9.6 0.00 0.00 0.00 84 1008.1
20260506030508 76 163 0.9 3.5 0.00 0.00 0.00 84 1008.7
20260506030015 76 148 0.9 4.3 0.00 0.00 0.00 84 1008.4
20260506030004 76 133 2.6 9.6 0.00 0.00 0.00 84 1007.9
20260506025506 76 184 0.9 4.3 0.00 0.00 0.00 84 1008.4
20260506025010 76 146 0.9 4.3 0.00 0.00 0.00 84 1008.5
20260506025004 76 183 3.5 7.0 0.00 0.00 0.00 84 1007.8
20260506024530 76 175 0.9 3.5 0.00 0.00 0.00 84 1008.5
20260506024515 76 150 1.7 6.1 0.00 0.00 0.00 84 1007.6
20260506024006 76 190 0.9 3.5 0.00 0.00 0.00 84 1008.2
20260506024002 76 167 1.7 6.1 0.00 0.00 0.00 84 1007.6
20260506023508 76 124 0.9 4.3 0.00 0.00 0.00 85 1008.1
20260506023502 76 177 2.6 6.1 0.00 0.00 0.00 85 1007.6
20260506023016 76 134 1.7 4.3 0.00 0.00 0.00 84 1007.5
20260506023012 76 151 0.9 3.5 0.00 0.00 0.00 84 1008.1
20260506022508 76 132 0.0 2.6 0.00 0.00 0.00 84 1007.4
20260506022505 76 157 0.0 1.7 0.00 0.00 0.00 84 1008.1
20260506022007 76 162 0.0 1.7 0.00 0.00 0.00 83 1007.9
20260506021518 77 169 0.0 2.6 0.00 0.00 0.00 83 1007.8
20260506021507 77 149 0.9 6.1 0.00 0.00 0.00 83 1007.2
20260506021009 77 154 1.7 6.1 0.00 0.00 0.00 82 1007.2
20260506020512 77 186 1.7 3.5 0.00 0.00 0.00 83 1007.9
20260506020510 77 140 1.7 7.8 0.00 0.00 0.00 83 1007.1
20260506020025 77 157 0.9 1.7 0.00 0.00 0.00 83 1007.8
20260506020003 77 145 1.7 7.8 0.00 0.00 0.00 83 1007.1
20260506015508 77 198 0.0 1.7 0.00 0.00 0.00 83 1007.8
20260506015503 77 159 1.7 4.3 0.00 0.00 0.00 83 1007.1
20260506015007 77 175 0.0 1.7 0.00 0.00 0.00 84 1007.8
20260506015003 77 150 1.7 3.5 0.00 0.00 0.00 84 1007.1
20260506014522 77 81 0.0 1.7 0.00 0.00 0.00 83 1007.8
20260506014506 77 165 1.7 3.5 0.00 0.00 0.00 83 1007.1
20260506014010 77 165 0.0 1.7 0.00 0.00 0.00 83 1007.7
20260506014004 77 143 0.9 3.5 0.00 0.00 0.00 83 1007.1
20260506013511 77 197 0.0 1.7 0.00 0.00 0.00 83 1007.8
20260506013505 77 158 0.9 3.5 0.00 0.00 0.00 83 1007.1
20260506013024 77 121 0.0 2.6 0.00 0.00 0.00 83 1007.7
20260506013014 77 142 0.9 2.6 0.00 0.00 0.00 83 1007.1
20260506012509 78 167 0.0 2.6 0.00 0.00 0.00 82 1007.7
20260506012506 78 152 0.9 3.5 0.00 0.00 0.00 82 1007.1
20260506012008 78 156 1.7 6.1 0.00 0.00 0.00 81 1006.9
20260506012005 78 167 0.0 2.6 0.00 0.00 0.00 81 1007.7
20260506011535 78 158 0.9 6.1 0.00 0.00 0.00 81 1006.9
20260506011514 78 211 0.0 1.7 0.00 0.00 0.00 81 1007.5
20260506011010 79 123 1.7 5.2 0.00 0.00 0.00 81 1006.8
20260506011005 79 169 0.0 1.7 0.00 0.00 0.00 81 1007.6
20260506010510 79 194 0.0 1.7 0.00 0.00 0.00 81 1007.6
20260506010503 79 144 1.7 4.3 0.00 0.00 0.00 81 1006.9
20260506010026 79 194 0.0 1.7 0.00 0.00 0.00 81 1007.6
20260506010011 79 158 0.9 2.6 0.00 0.00 0.00 81 1006.8
20260506005508 79 159 0.9 2.6 0.00 0.00 0.00 80 1006.8
20260506005012 79 175 0.0 1.7 0.00 0.00 0.00 80 1007.5
20260506005007 79 111 0.9 3.5 0.00 0.00 0.00 80 1006.7
20260506004535 79 180 0.0 1.7 0.00 0.00 0.00 79 1007.4
20260506004511 79 171 0.9 3.5 0.00 0.00 0.00 79 1006.7
20260506004006 80 174 0.0 1.7 0.00 0.00 0.00 79 1007.4
20260506004003 80 159 0.9 3.5 0.00 0.00 0.00 79 1006.7
20260506003511 80 198 0.0 3.5 0.00 0.00 0.00 79 1007.3
20260506003503 80 163 1.7 7.0 0.00 0.00 0.00 79 1006.6
20260506003026 80 165 0.0 3.5 0.00 0.00 0.00 78 1007.1
20260506003006 80 157 1.7 7.0 0.00 0.00 0.00 78 1006.4
20260506002511 80 241 0.0 1.7 0.00 0.00 0.00 78 1007.1
20260506002504 80 153 2.6 7.0 0.00 0.00 0.00 78 1006.4
20260506002007 80 170 0.0 1.7 0.00 0.00 0.00 78 1007.1
20260506001522 81 132 0.0 1.7 0.00 0.00 0.00 77 1007.0
20260506001512 81 143 1.7 4.3 0.00 0.00 0.00 77 1006.3
20260506001006 81 250 0.0 1.7 0.00 0.00 0.00 77 1007.0
20260506001004 81 178 0.9 5.2 0.00 0.00 0.00 77 1006.3
20260506000508 81 207 0.0 4.3 0.00 0.00 0.00 77 1007.0
20260506000023 81 200 0.9 4.3 0.00 0.00 0.00 76 1006.9
20260506000021 81 160 2.6 5.2 0.00 0.00 0.00 76 1006.2
20260505235511 81 163 0.0 3.5 0.00 0.00 0.00 76 1007.0
20260505235502 81 171 1.7 4.3 0.00 0.00 0.00 76 1006.2
20260505235007 81 175 0.0 3.5 0.00 0.00 0.00 76 1006.9
20260505235003 81 141 1.7 4.3 0.00 0.00 0.00 76 1006.2
20260505234524 81 184 0.0 1.7 0.00 0.00 0.00 77 1006.9
20260505234522 81 166 0.9 4.3 0.00 0.00 0.00 77 1006.2
20260505234012 81 173 1.7 4.3 0.00 0.00 0.00 75 1006.2
20260505234006 81 192 0.0 3.5 0.00 0.00 0.00 75 1006.9
20260505233513 82 173 0.0 4.3 0.00 0.00 0.00 75 1006.9
20260505233504 82 145 1.7 7.8 0.00 0.00 0.00 75 1006.1
20260505233014 82 186 0.0 3.5 0.00 0.00 0.00 74 1006.9
20260505233005 82 190 2.6 7.8 0.00 0.00 0.00 74 1006.2
20260505232507 82 182 0.0 1.7 0.00 0.00 0.00 74 1006.9
20260505232505 82 162 1.7 7.8 0.00 0.00 0.00 74 1006.2
20260505232007 82 182 0.9 3.5 0.00 0.00 0.00 74 1006.8
20260505232003 82 171 0.9 7.8 0.00 0.00 0.00 74 1006.1
20260505231527 82 173 0.0 3.5 0.00 0.00 0.00 74 1006.8
20260505231512 82 150 1.7 7.0 0.00 0.00 0.00 74 1006.0
20260505231007 82 183 0.9 2.6 0.00 0.00 0.00 73 1006.8
20260505231004 82 166 1.7 7.0 0.00 0.00 0.00 73 1006.0
20260505230509 82 89 0.0 2.6 0.00 0.00 0.00 74 1006.8
20260505230506 82 168 2.6 7.0 0.00 0.00 0.00 74 1006.0
20260505230018 82 165 0.0 2.6 0.00 0.00 0.00 73 1006.8
20260505230009 82 150 1.7 7.0 0.00 0.00 0.00 73 1006.0
20260505225510 83 171 2.6 7.8 0.00 0.00 0.00 73 1006.0
20260505225506 83 171 0.9 3.5 0.00 0.00 0.00 73 1006.7
20260505225009 82 147 3.5 7.8 0.00 0.00 0.00 73 1006.1
20260505225007 82 210 0.0 4.3 0.00 0.00 0.00 73 1006.8
20260505224534 82 208 0.9 4.3 0.00 0.00 0.00 72 1006.9
20260505224508 82 132 4.3 8.7 0.00 0.00 0.00 72 1006.1
20260505224007 83 182 1.7 7.0 0.00 0.00 0.00 71 1006.9
20260505223514 83 197 0.9 7.0 0.00 0.00 0.00 72 1007.0
20260505223509 83 186 4.3 8.7 0.00 0.00 0.00 72 1006.2
20260505223038 83 220 0.9 5.2 0.00 0.00 0.00 71 1006.9
20260505223025 83 178 5.2 9.6 0.00 0.00 0.00 71 1006.2
20260505222507 84 163 0.9 5.2 0.00 0.00 0.00 70 1006.9
20260505222505 84 190 4.3 9.6 0.00 0.00 0.00 70 1006.1
20260505222009 84 216 0.9 5.2 0.00 0.00 0.00 71 1006.9
20260505222007 84 212 5.2 9.6 0.00 0.00 0.00 71 1006.1
20260505221524 83 206 0.9 5.2 0.00 0.00 0.00 72 1007.0
20260505221510 83 177 4.3 9.6 0.00 0.00 0.00 72 1006.3
20260505221012 83 198 0.9 5.2 0.00 0.00 0.00 73 1007.0
20260505221004 83 191 6.1 8.7 0.00 0.00 0.00 73 1006.3
20260505220509 82 179 0.9 2.6 0.00 0.00 0.00 74 1007.2
20260505220505 82 207 3.5 8.7 0.00 0.00 0.00 74 1006.5
20260505220033 82 227 0.9 7.0 0.00 0.00 0.00 73 1007.2
20260505220027 82 155 4.3 13.9 0.00 0.00 0.00 73 1006.5
20260505215512 82 207 0.9 7.0 0.00 0.00 0.00 73 1007.2
20260505215510 82 186 6.1 13.9 0.00 0.00 0.00 73 1006.5
20260505215009 83 246 0.9 7.0 0.00 0.00 0.00 72 1007.3
20260505215004 83 206 4.3 10.4 0.00 0.00 0.00 72 1006.6
20260505214525 83 195 6.1 10.4 0.00 0.00 0.00 71 1006.6
20260505214521 83 238 0.9 9.6 0.00 0.00 0.00 71 1007.3
20260505214010 83 120 3.5 9.6 0.00 0.00 0.00 71 1006.5
20260505214008 83 171 1.7 9.6 0.00 0.00 0.00 71 1007.2
20260505213512 83 162 1.7 4.3 0.00 0.00 0.00 71 1007.2
20260505213507 83 176 5.2 10.4 0.00 0.00 0.00 71 1006.6
20260505213038 84 248 0.9 4.3 0.00 0.00 0.00 72 1007.3
20260505213019 84 147 4.3 10.4 0.00 0.00 0.00 72 1006.6
20260505212509 83 162 6.1 12.2 0.00 0.00 0.00 71 1006.7
20260505212504 83 194 0.9 6.1 0.00 0.00 0.00 71 1007.3
20260505212014 83 170 7.8 12.2 0.00 0.00 0.00 70 1006.8
20260505212004 83 132 2.6 6.1 0.00 0.00 0.00 70 1007.5
20260505211510 83 148 3.5 12.2 0.00 0.00 0.00 72 1006.8
20260505211506 83 254 0.9 7.0 0.00 0.00 0.00 72 1007.4
20260505211007 84 132 0.9 6.1 0.00 0.00 0.00 72 1007.4
20260505211005 84 165 5.2 12.2 0.00 0.00 0.00 72 1006.8
20260505210505 83 180 1.7 6.1 0.00 0.00 0.00 73 1007.5
20260505210012 82 185 5.2 10.4 0.00 0.00 0.00 73 1007.0
20260505210010 82 194 0.9 3.5 0.00 0.00 0.00 73 1007.7
20260505205513 82 217 6.1 10.4 0.00 0.00 0.00 74 1007.1
20260505205509 82 97 0.9 3.5 0.00 0.00 0.00 74 1007.9
20260505205014 82 154 0.9 7.0 0.00 0.00 0.00 74 1008.0
20260505205007 82 232 5.2 10.4 0.00 0.00 0.00 74 1007.3
20260505204523 81 217 6.1 14.8 0.00 0.00 0.00 72 1007.5
20260505204510 81 156 1.7 7.0 0.00 0.00 0.00 72 1008.1
20260505204004 82 174 0.9 5.2 0.00 0.00 0.00 73 1008.1
20260505204002 82 120 3.5 14.8 0.00 0.00 0.00 73 1007.5
20260505203506 82 65 2.6 13.0 0.00 0.00 0.00 76 1007.6
20260505203024 82 166 7.0 13.0 0.00 0.00 0.00 74 1007.6
20260505203004 82 202 1.7 6.1 0.00 0.00 0.00 74 1008.3
20260505202508 82 188 3.5 13.0 0.00 0.00 0.00 74 1007.7
20260505202503 82 162 0.9 6.1 0.00 0.00 0.00 74 1008.3
20260505202008 81 202 5.2 9.6 0.00 0.00 0.00 75 1007.7
20260505202003 81 199 0.9 5.2 0.00 0.00 0.00 75 1008.4
20260505201522 81 170 3.5 9.6 0.00 0.00 0.00 74 1007.7
20260505201508 81 142 1.7 3.5 0.00 0.00 0.00 74 1008.4
20260505201009 81 171 3.5 9.6 0.00 0.00 0.00 74 1007.8
20260505201004 81 263 0.9 4.3 0.00 0.00 0.00 74 1008.5
20260505200510 81 163 1.7 4.3 0.00 0.00 0.00 75 1008.5
20260505200507 81 160 4.3 9.6 0.00 0.00 0.00 75 1007.8
20260505200012 81 192 0.9 4.3 0.00 0.00 0.00 76 1008.6
20260505195503 81 163 0.9 7.0 0.00 0.00 0.00 75 1008.7
20260505195007 82 193 7.0 10.4 0.00 0.00 0.00 73 1008.0
20260505195003 82 171 0.9 7.0 0.00 0.00 0.00 73 1008.8
20260505194520 82 166 3.5 17.4 0.00 0.00 0.00 76 1008.1
20260505194516 82 133 0.9 4.3 0.00 0.00 0.00 76 1008.9
20260505194014 82 135 1.7 7.8 0.00 0.00 0.00 74 1009.0
20260505194011 82 142 5.2 17.4 0.00 0.00 0.00 74 1008.2
20260505193508 81 189 4.3 13.0 0.00 0.00 0.00 78 1008.3
20260505193503 81 193 0.9 7.8 0.00 0.00 0.00 78 1009.1
20260505193034 81 169 0.9 7.8 0.00 0.00 0.00 76 1009.1
20260505193011 81 143 5.2 13.0 0.00 0.00 0.00 76 1008.3
20260505192506 82 227 7.8 13.9 0.00 0.00 0.00 74 1008.3
20260505192011 82 219 8.7 13.9 0.00 0.00 0.00 75 1008.4
20260505192003 82 242 1.7 7.0 0.00 0.00 0.00 75 1009.2
20260505191526 81 162 6.1 12.2 0.00 0.00 0.00 74 1008.5
20260505191507 81 201 1.7 4.3 0.00 0.00 0.00 74 1009.2
20260505191006 81 197 6.1 13.9 0.00 0.00 0.00 77 1008.5
20260505191003 81 248 0.9 8.7 0.00 0.00 0.00 77 1009.2
20260505190514 80 221 6.1 13.9 0.00 0.00 0.00 77 1008.5
20260505190502 80 196 0.9 8.7 0.00 0.00 0.00 77 1009.2
20260505190029 80 97 5.2 10.4 0.00 0.00 0.00 78 1008.5
20260505190016 80 145 0.9 2.6 0.00 0.00 0.00 78 1009.2
20260505185506 80 180 0.9 6.1 0.00 0.00 0.00 77 1009.2
20260505185007 80 161 6.1 9.6 0.00 0.00 0.00 77 1008.7
20260505185004 80 169 1.7 6.1 0.00 0.00 0.00 77 1009.3
20260505184514 80 183 5.2 9.6 0.00 0.00 0.00 80 1008.7
20260505184504 80 245 0.9 5.2 0.00 0.00 0.00 80 1009.4
20260505184006 79 153 5.2 10.4 0.00 0.00 0.00 81 1008.8
20260505184004 79 186 1.7 8.7 0.00 0.00 0.00 81 1009.4
20260505183507 78 172 5.2 11.3 0.00 0.00 0.00 80 1008.8
20260505183503 78 198 0.9 8.7 0.00 0.00 0.00 80 1009.4
20260505183031 78 228 5.2 11.3 0.00 0.00 0.00 81 1008.9
20260505183027 78 232 0.9 3.5 0.00 0.00 0.00 81 1009.4
20260505182506 78 165 6.1 9.6 0.00 0.00 0.00 82 1009.1
20260505182504 78 207 0.9 7.8 0.00 0.00 0.00 82 1009.6
20260505182012 77 175 6.1 10.4 0.00 0.00 0.00 80 1009.1
20260505182007 77 212 1.7 7.8 0.00 0.00 0.00 80 1009.6
20260505181521 77 194 0.9 7.0 0.00 0.00 0.00 81 1009.7
20260505181519 77 165 6.1 11.3 0.00 0.00 0.00 81 1009.2
20260505181012 77 188 6.1 11.3 0.00 0.00 0.00 82 1009.2
20260505181009 77 208 2.6 7.0 0.00 0.00 0.00 82 1009.8
20260505180514 77 192 6.1 9.6 0.00 0.00 0.00 81 1009.2
20260505180504 77 205 2.6 4.3 0.00 0.00 0.00 81 1009.8
20260505180008 77 213 5.2 10.4 0.00 0.00 0.00 81 1009.2
20260505175503 77 210 0.9 5.2 0.00 0.00 0.00 83 1009.7
20260505175003 76 172 1.7 4.3 0.00 0.00 0.00 82 1009.8
20260505174513 76 193 7.0 10.4 0.00 0.00 0.00 82 1009.3
20260505174511 76 224 0.9 7.0 0.00 0.00 0.00 82 1009.9
20260505174007 76 190 0.9 7.0 0.00 0.00 0.00 82 1010.0
20260505173503 76 219 6.1 10.4 0.00 0.00 0.00 82 1009.4
20260505173009 77 177 0.0 5.2 0.00 0.00 0.00 82 1009.9
20260505173007 77 158 4.3 10.4 0.00 0.00 0.00 82 1009.4
20260505172509 77 204 5.2 10.4 0.00 0.00 0.00 81 1009.4
20260505172507 77 236 0.9 6.1 0.00 0.00 0.00 81 1009.9
20260505172020 77 237 1.7 7.0 0.00 0.00 0.00 82 1009.9
20260505172003 77 188 7.0 11.3 0.00 0.00 0.00 82 1009.4
20260505171521 76 254 0.9 7.0 0.00 0.00 0.00 84 1009.9
20260505171503 76 163 7.0 11.3 0.00 0.00 0.00 84 1009.4
20260505171005 76 213 0.9 6.1 0.00 0.00 0.00 83 1009.9
20260505171003 76 184 7.8 11.3 0.00 0.00 0.00 83 1009.3
20260505170514 76 241 1.7 6.1 0.00 0.00 0.00 82 1009.9
20260505170502 76 146 7.0 12.2 0.00 0.00 0.00 82 1009.3
20260505170011 76 233 1.7 9.6 0.00 0.00 0.00 83 1009.9
20260505170004 76 203 7.8 13.0 0.00 0.00 0.00 83 1009.4
20260505165503 76 178 7.0 13.0 0.00 0.00 0.00 84 1009.4
20260505165004 75 186 0.9 4.3 0.00 0.00 0.00 84 1009.9
20260505164523 75 158 0.9 5.2 0.00 0.00 0.00 84 1010.0
20260505164506 75 159 5.2 11.3 0.00 0.00 0.00 84 1009.3
20260505164004 75 211 6.1 13.0 0.00 0.00 0.00 84 1009.3
20260505163504 75 177 6.1 13.0 0.00 0.00 0.00 85 1009.4
20260505163018 75 238 1.7 7.8 0.00 0.00 0.00 85 1010.1
20260505163015 75 196 7.8 13.0 0.00 0.00 0.00 85 1009.4
20260505162505 74 163 1.7 5.2 0.00 0.00 0.00 85 1010.1
20260505162503 74 156 6.1 13.9 0.00 0.00 0.00 85 1009.5
20260505162007 74 198 7.8 13.9 0.00 0.00 0.00 85 1009.6
20260505161518 74 173 1.7 7.0 0.00 0.00 0.00 86 1010.3
20260505161008 74 194 1.7 9.6 0.00 0.00 0.00 87 1010.3
20260505161004 74 163 6.1 10.4 0.00 0.00 0.00 87 1009.6
20260505160504 73 238 2.6 9.6 0.00 0.00 0.00 87 1010.4
20260505160502 73 217 7.0 14.8 0.00 0.00 0.00 87 1009.7
20260505153008 73 198 6.1 10.4 0.00 0.00 0.00 88 1009.3
20260505153006 73 221 0.9 6.1 0.00 0.00 0.00 88 1010.1
20260505152507 73 199 7.0 10.4 0.00 0.00 0.00 89 1009.2
20260505152504 73 191 0.9 5.2 0.00 0.00 0.00 89 1009.9
20260505152015 72 213 0.9 6.1 0.00 0.00 0.00 89 1010.0
20260505152006 72 203 5.2 11.3 0.00 0.00 0.00 89 1009.3
20260505151518 72 260 0.0 6.1 0.00 0.00 0.00 89 1010.1
20260505151503 72 235 5.2 11.3 0.00 0.00 0.00 89 1009.3
20260505151003 72 182 6.1 10.4 0.00 0.00 0.00 89 1009.3
20260505150513 72 214 0.9 7.0 0.00 0.00 0.00 89 1010.0
20260505150506 72 192 6.1 11.3 0.00 0.00 0.00 89 1009.3
20260505140512 71 232 1.7 7.0 0.00 0.00 0.00 88 1009.6
20260505140502 71 200 5.2 12.2 0.00 0.00 0.00 88 1008.9
20260505125006 70 205 0.9 3.5 0.00 0.00 0.00 89 1009.1
20260505125004 70 177 5.2 10.4 0.00 0.00 0.00 89 1008.4
20260505124530 70 202 4.3 9.6 0.00 0.00 0.00 88 1008.4
20260505124520 70 193 0.9 3.5 0.00 0.00 0.00 88 1009.2
20260505124011 70 209 0.9 8.7 0.00 0.00 0.00 88 1009.1
20260505124009 70 173 4.3 9.6 0.00 0.00 0.00 88 1008.3
20260505123504 70 178 0.9 8.7 0.00 0.00 0.00 88 1009.0
20260505123502 70 195 5.2 11.3 0.00 0.00 0.00 88 1008.1
20260505123019 70 196 1.7 3.5 0.00 0.00 0.00 88 1009.0
20260505123011 70 234 7.0 11.3 0.00 0.00 0.00 88 1008.2
20260505122504 70 158 4.3 11.3 0.00 0.00 0.00 88 1008.1
20260505122004 70 192 0.9 4.3 0.00 0.00 0.00 88 1008.9
20260505122002 70 221 7.0 11.3 0.00 0.00 0.00 88 1008.1
20260505121512 70 158 6.1 9.6 0.00 0.00 0.00 88 1008.0
20260505121004 70 173 0.9 4.3 0.00 0.00 0.00 88 1008.7
20260505120508 70 195 1.7 3.5 0.00 0.00 0.00 88 1008.7
20260505120504 70 245 4.3 8.7 0.00 0.00 0.00 88 1007.9
20260505120008 70 163 0.9 4.3 0.00 0.00 0.00 87 1008.7
20260505115509 70 158 0.9 4.3 0.00 0.00 0.00 87 1008.5
20260505115506 70 175 5.2 10.4 0.00 0.00 0.00 87 1007.7
20260505115007 70 200 0.9 4.3 0.00 0.00 0.00 87 1008.7
20260505114525 70 220 1.7 4.3 0.00 0.00 0.00 87 1008.7
20260505114522 70 176 6.1 12.2 0.00 0.00 0.00 87 1007.9
20260505114007 70 180 4.3 10.4 0.00 0.00 0.00 87 1007.9
20260505114004 70 238 0.9 3.5 0.00 0.00 0.00 87 1008.6
20260505113509 70 194 0.9 5.2 0.00 0.00 0.00 87 1008.6
20260505113507 70 128 4.3 12.2 0.00 0.00 0.00 87 1007.8
20260505113023 70 167 7.0 12.2 0.00 0.00 0.00 87 1007.8
20260505112504 70 222 1.7 9.6 0.00 0.00 0.00 87 1008.7
20260505112502 70 219 6.1 11.3 0.00 0.00 0.00 87 1008.1
20260505112007 70 242 1.7 7.0 0.00 0.00 0.00 87 1008.7
20260505112003 70 219 5.2 13.9 0.00 0.00 0.00 87 1008.0
20260505111516 70 128 1.7 7.0 0.00 0.00 0.00 87 1008.5
20260505111512 70 191 6.1 13.9 0.00 0.00 0.00 87 1007.9
20260505111006 70 257 6.1 10.4 0.00 0.00 0.00 87 1008.1
20260505110506 70 178 4.3 13.0 0.00 0.00 0.00 87 1008.0
20260505102009 69 167 5.2 10.4 0.00 0.00 0.00 88 1008.3
20260505102007 69 205 1.7 5.2 0.00 0.00 0.00 88 1008.9
20260505101526 69 186 0.9 5.2 0.00 0.00 0.00 88 1008.8
20260505101508 69 185 4.3 9.6 0.00 0.00 0.00 88 1008.1
20260505101006 69 186 0.9 2.6 0.00 0.00 0.00 87 1008.6
20260505101003 69 162 3.5 9.6 0.00 0.00 0.00 87 1007.9
20260505100508 69 173 0.9 4.3 0.00 0.00 0.00 88 1008.6
20260505100504 69 165 5.2 13.0 0.00 0.00 0.00 88 1007.9
20260505100016 69 197 0.9 5.2 0.00 0.00 0.00 88 1008.7
20260505100014 69 178 5.2 13.0 0.00 0.00 0.00 88 1008.1
20260505095506 69 178 6.1 10.4 0.00 0.00 0.00 88 1008.2
20260505095504 69 154 1.7 5.2 0.00 0.00 0.00 88 1008.9
20260505095010 69 217 0.9 4.3 0.00 0.00 0.00 88 1008.9
20260505095006 69 178 5.2 10.4 0.00 0.00 0.00 88 1008.1
20260505094518 69 226 6.1 10.4 0.00 0.00 0.00 88 1008.2
20260505094516 69 172 0.9 4.3 0.00 0.00 0.00 88 1008.8
20260505094006 69 205 0.9 4.3 0.00 0.00 0.00 88 1008.8
20260505093507 69 153 3.5 8.7 0.00 0.00 0.00 88 1008.0
20260505093023 69 196 4.3 8.7 0.00 0.00 0.00 88 1008.2
20260505092510 69 250 0.9 4.3 0.00 0.00 0.00 88 1009.0
20260505092508 69 169 5.2 8.7 0.00 0.00 0.00 88 1008.3
20260505092007 69 192 5.2 9.6 0.00 0.00 0.00 88 1008.3
20260505092004 69 229 0.9 3.5 0.00 0.00 0.00 88 1009.0
20260505091519 69 226 5.2 9.6 0.00 0.00 0.00 87 1008.3
20260505091506 69 185 0.9 5.2 0.00 0.00 0.00 87 1009.0
20260505091008 69 136 5.2 14.8 0.00 0.00 0.00 87 1008.3
20260505091006 69 117 1.7 5.2 0.00 0.00 0.00 87 1009.0
20260505090504 69 229 0.0 3.5 0.00 0.00 0.00 87 1008.8
20260505090018 69 196 5.2 12.2 0.00 0.00 0.00 87 1008.2
20260505090012 69 168 0.9 4.3 0.00 0.00 0.00 87 1008.9
20260505085504 69 207 5.2 12.2 0.00 0.00 0.00 87 1008.2
20260505085007 69 190 5.2 9.6 0.00 0.00 0.00 87 1008.4
20260505085004 69 203 1.7 6.1 0.00 0.00 0.00 87 1009.1
20260505084534 69 195 3.5 9.6 0.00 0.00 0.00 87 1008.5
20260505084517 69 190 0.9 4.3 0.00 0.00 0.00 87 1009.1
20260505084012 69 207 0.9 4.3 0.00 0.00 0.00 87 1009.2
20260505084007 69 202 5.2 10.4 0.00 0.00 0.00 87 1008.6
20260505083507 69 166 5.2 10.4 0.00 0.00 0.00 87 1008.4
20260505083505 69 178 1.7 4.3 0.00 0.00 0.00 87 1009.1
20260505083020 69 147 2.6 7.8 0.00 0.00 0.00 87 1008.5
20260505083012 69 197 0.9 3.5 0.00 0.00 0.00 87 1009.1
20260505082507 69 172 4.3 8.7 0.00 0.00 0.00 87 1008.6
20260505082007 69 206 0.9 5.2 0.00 0.00 0.00 87 1009.3
20260505081528 69 192 4.3 8.7 0.00 0.00 0.00 87 1008.7
20260505081508 69 240 0.9 3.5 0.00 0.00 0.00 87 1009.3
20260505081005 69 201 0.9 3.5 0.00 0.00 0.00 86 1009.3
20260505080506 69 180 4.3 9.6 0.00 0.00 0.00 86 1008.9
20260505080504 69 175 0.9 6.1 0.00 0.00 0.00 86 1009.5
20260505080026 70 192 5.2 12.2 0.00 0.00 0.00 86 1009.0
20260505080008 70 186 0.9 6.1 0.00 0.00 0.00 86 1009.6
20260505075509 70 152 5.2 13.0 0.00 0.00 0.00 86 1009.0
20260505075506 70 202 1.7 5.2 0.00 0.00 0.00 86 1009.6
20260505075007 70 156 7.0 13.0 0.00 0.00 0.00 86 1009.0
20260505075002 70 163 0.9 5.2 0.00 0.00 0.00 86 1009.6
20260505074516 70 198 0.9 4.3 0.00 0.00 0.00 86 1009.7
20260505074514 70 242 3.5 13.9 0.00 0.00 0.00 86 1009.0
20260505074005 70 198 1.7 4.3 0.00 0.00 0.00 86 1009.8
20260505073506 70 209 6.1 13.0 0.00 0.00 0.00 86 1009.2
20260505073504 70 191 1.7 3.5 0.00 0.00 0.00 86 1009.8
20260505073021 70 230 5.2 10.4 0.00 0.00 0.00 86 1009.2
20260505073019 70 189 0.9 2.6 0.00 0.00 0.00 86 1009.8
20260505072509 70 200 5.2 9.6 0.00 0.00 0.00 86 1009.3
20260505072507 70 223 0.9 2.6 0.00 0.00 0.00 86 1009.9
20260505072012 69 166 4.3 9.6 0.00 0.00 0.00 86 1009.4
20260505072003 69 232 0.9 3.5 0.00 0.00 0.00 86 1010.0
20260505071520 69 234 0.9 4.3 0.00 0.00 0.00 86 1010.0
20260505071007 69 182 1.7 4.3 0.00 0.00 0.00 86 1010.0
20260505070509 69 157 4.3 13.9 0.00 0.00 0.00 86 1009.5
20260505070503 69 186 0.9 5.2 0.00 0.00 0.00 86 1010.1
20260505070016 69 200 6.1 13.9 0.00 0.00 0.00 86 1009.5
20260505070013 69 207 0.9 5.2 0.00 0.00 0.00 86 1010.2
20260505065514 69 170 6.1 12.2 0.00 0.00 0.00 86 1009.4
20260505065503 69 226 0.9 6.1 0.00 0.00 0.00 86 1010.1
20260505065012 69 140 3.5 9.6 0.00 0.00 0.00 86 1009.6
20260505065002 69 186 0.9 6.1 0.00 0.00 0.00 86 1010.3
20260505064528 69 158 5.2 9.6 0.00 0.00 0.00 86 1009.7
20260505064511 69 178 0.9 4.3 0.00 0.00 0.00 86 1010.4
20260505064015 69 150 5.2 8.7 0.00 0.00 0.00 86 1009.7
20260505064006 69 198 0.9 2.6 0.00 0.00 0.00 86 1010.4
20260505063506 69 71 0.9 5.2 0.00 0.00 0.00 86 1010.5
20260505063504 69 151 4.3 10.4 0.00 0.00 0.00 86 1009.8
20260505063020 69 186 6.1 10.4 0.00 0.00 0.00 86 1009.9
20260505063008 69 215 1.7 5.2 0.00 0.00 0.00 86 1010.5
20260505062508 69 190 5.2 13.9 0.00 0.00 0.00 85 1010.0
20260505062012 69 224 0.9 13.9 0.00 0.00 0.00 86 1010.7
20260505062008 69 183 6.1 13.9 0.00 0.00 0.00 86 1010.0
20260505061525 69 228 5.2 12.2 0.00 0.00 0.00 86 1010.0
20260505061520 69 241 0.9 3.5 0.00 0.00 0.00 86 1010.7
20260505061009 69 194 4.3 12.2 0.00 0.00 0.00 86 1010.0
20260505061003 69 200 0.9 7.0 0.00 0.00 0.00 86 1010.6
20260505060509 69 165 0.9 7.0 0.00 0.00 0.00 86 1010.5
20260505060028 69 172 0.9 3.5 0.00 0.00 0.00 86 1010.6
20260505060004 69 161 3.5 10.4 0.00 0.00 0.00 86 1009.9
20260505055503 69 207 4.3 13.0 0.00 0.00 0.00 86 1009.8
20260505055004 69 152 1.7 6.1 0.00 0.00 0.00 86 1010.4
20260505055002 69 175 6.1 13.0 0.00 0.00 0.00 86 1009.8
20260505054511 69 169 1.7 6.1 0.00 0.00 0.00 86 1010.3
20260505054505 69 181 6.1 11.3 0.00 0.00 0.00 86 1009.7
20260505054003 69 195 0.9 4.3 0.00 0.00 0.00 86 1010.3
20260505053503 69 190 0.9 7.0 0.00 0.00 0.00 85 1010.3
20260505053018 69 219 0.9 7.0 0.00 0.00 0.00 85 1010.6
20260505053012 69 161 5.2 13.0 0.00 0.00 0.00 85 1009.8
20260505052510 69 151 1.7 4.3 0.00 0.00 0.00 85 1010.3
20260505052503 69 166 4.3 11.3 0.00 0.00 0.00 85 1009.7
20260505052006 69 186 6.1 12.2 0.00 0.00 0.00 85 1009.6
20260505052003 69 148 0.9 4.3 0.00 0.00 0.00 85 1010.2
20260505051521 69 164 0.9 5.2 0.00 0.00 0.00 85 1010.5
20260505051518 69 173 6.1 12.2 0.00 0.00 0.00 85 1009.8
20260505051006 69 174 1.7 5.2 0.00 0.00 0.00 84 1010.6
20260505050511 69 203 1.7 5.2 0.00 0.00 0.00 84 1010.4
20260505050506 69 177 3.5 13.0 0.00 0.00 0.00 84 1009.7
20260505041531 70 154 1.7 7.8 0.00 0.00 0.00 82 1010.8
20260505041504 70 136 5.2 12.2 0.00 0.00 0.00 82 1010.1
20260505041004 71 177 0.9 6.1 0.00 0.00 0.00 82 1010.8
20260505040512 71 148 0.9 6.1 0.00 0.00 0.00 81 1010.7
20260505040508 71 94 5.2 16.5 0.00 0.00 0.00 81 1010.0
20260505040024 71 85 0.9 6.1 0.00 0.00 0.00 81 1010.7
20260505040016 71 174 3.5 16.5 0.00 0.00 0.00 81 1010.0
20260505035509 71 188 1.7 4.3 0.00 0.00 0.00 81 1010.7
20260505035506 71 177 3.5 10.4 0.00 0.00 0.00 81 1010.0
20260505035003 71 198 3.5 12.2 0.00 0.00 0.00 81 1010.1
20260505034523 71 171 1.7 5.2 0.00 0.00 0.00 81 1010.6
20260505034508 71 154 3.5 12.2 0.00 0.00 0.00 81 1010.0
20260505034015 71 217 0.9 5.2 0.00 0.00 0.00 81 1010.7